Regional Weather Roundup
Issued by NWS Nashville, TN

Home | Current Version | Previous Version | Text Only | Print | Product List | Glossary On
Versions: 1 2 3 4 5 6 7 8 9 10 11 12 13 14 15 16 17 18 19 20 21 22 23 24 25 26 27 28 29 30 31 32 33 34 35 36 37 38 39 40 41 42 43 44 45 46 47 48 49 50
303
ASUS44 KOHX 230510
RWROHX
MIDDLE TENNESSEE HOURLY WEATHER ROUNDUP
NATIONAL WEATHER SERVICE NASHVILLE TN
1100 PM CST WED FEB 22 2017

NOTE: "FAIR" INDICATES FEW OR NO CLOUDS BELOW 12,000 FEET WITH
NO SIGNIFICANT WEATHER AND/OR OBSTRUCTIONS TO VISIBILITY.

* THESE REPORTS ARE NOT UNDER NWS QUALITY CONTROL AND MAY NOT
  REPORT WEATHER SUCH AS PRECIPITATION AND FOG.


TNZ005>011-023>034-057-059-062>066-078-080-230600
...NORTHERN MIDDLE TENNESSEE...

CITY           SKY/WX    TMP DP  RH WIND       PRES   REMARKS
CLARKSVILLE    CLEAR     56  52  86 CALM      29.82F
CROSSVILLE     FOG       53  52  96 SE3       29.89F VSB 1/4
GALLATIN       PTCLDY    55  54  94 CALM      29.88S
DICKSON        CLEAR     58  56  93 S3        29.84F
LIVINGSTON     CLEAR     58  53  83 CALM      29.87F
NASHVILLE      CLEAR     56  54  93 S5        29.85S
PORTLAND       CLEAR     55  55 100 S6        29.85S
SMYRNA         FOG       52  50  93 CALM      29.86S VSB 1
SPARTA         MOCLDY    52  50  93 S5        29.86S
SPRINGFIELD    MOCLDY    59  57  94 S5        29.83S
WEST NASHVILLE PTCLDY    55  55 100 CALM      29.84F
$$
TNZ056-058-060-061-075>077-079-093>097-230600
...SOUTHERN MIDDLE TENNESSEE...

CITY           SKY/WX    TMP DP  RH WIND       PRES   REMARKS
COLUMBIA         N/A    N/A N/A N/A CALM      29.84S VSB 3/4
FAYETTEVILLE   CLEAR     57  55  94 CALM      29.86S
MCMINNVILLE    MOCLDY    50  50 100 CALM      29.86F VSB 1/2
MURFREESBORO   CLEAR     55  53  93 CALM      29.85S
SHELBYVILLE    CLEAR     57  57 100 SE5       29.87R
TULLAHOMA        N/A     52  50  93 CALM      29.87S VSB 1
WINCHESTER     CLEAR     52  52 100 CALM      29.87S
$$


...KEY TO REMARKS...
VSB - VISIBILITY IN MILES
WCI - WIND CHILL INDEX
HX  - HEAT INDEX





USA.gov is the U.S. government's official web portal to all federal, state and local government web resources and services.